| time (UTC) | temp C | wind direction | speed KPH | gust KPH | rain 1hr cm | rain 24hr cm | rain mn cm | humidity % | barometer mb |
| 20260506180504 | 13 | 127 | 3.2 | 4.8 | 0.00 | 0.00 | 0.00 | 57 | 1013.0 |
| 20260506180005 | 13 | 138 | 3.2 | 8.0 | 0.00 | 0.00 | 0.00 | 56 | 1013.0 |
| 20260506175503 | 13 | 130 | 3.2 | 8.0 | 0.00 | 0.00 | 0.00 | 56 | 1012.9 |
| 20260506175003 | 13 | 125 | 3.2 | 8.0 | 0.00 | 0.00 | 0.00 | 55 | 1012.9 |
| 20260506174503 | 13 | 124 | 4.8 | 11.3 | 0.00 | 0.00 | 0.00 | 53 | 1012.9 |
| 20260506174003 | 13 | 113 | 6.4 | 12.9 | 0.00 | 0.00 | 0.00 | 52 | 1012.9 |
| 20260506173504 | 13 | 109 | 3.2 | 9.7 | 0.00 | 0.00 | 0.00 | 53 | 1012.9 |
| 20260506172503 | 14 | 65 | 3.2 | 4.8 | 0.00 | 0.00 | 0.00 | 53 | 1012.8 |
| 20260506172004 | 14 | 65 | 4.8 | 11.3 | 0.00 | 0.00 | 0.00 | 53 | 1012.8 |
| 20260506171503 | 14 | 117 | 3.2 | 4.8 | 0.00 | 0.00 | 0.00 | 52 | 1012.8 |
| 20260506171003 | 14 | 137 | 3.2 | 4.8 | 0.00 | 0.00 | 0.00 | 53 | 1012.7 |
| 20260506170004 | 14 | 138 | 3.2 | 4.8 | 0.00 | 0.00 | 0.00 | 54 | 1012.8 |
| 20260506165504 | 14 | 139 | 1.6 | 4.8 | 0.00 | 0.00 | 0.00 | 51 | 1012.7 |
| 20260506164503 | 15 | 113 | 8.0 | 12.9 | 0.00 | 0.00 | 0.00 | 53 | 1012.7 |
| 20260506164004 | 15 | 126 | 8.0 | 12.9 | 0.00 | 0.00 | 0.00 | 52 | 1012.7 |
| 20260506162503 | 15 | 127 | 4.8 | 11.3 | 0.00 | 0.00 | 0.00 | 50 | 1012.7 |
| 20260506162003 | 15 | 158 | 4.8 | 12.9 | 0.00 | 0.00 | 0.00 | 48 | 1012.7 |
| 20260506161503 | 15 | 113 | 8.0 | 14.5 | 0.00 | 0.00 | 0.00 | 49 | 1012.7 |
| 20260506161003 | 15 | 107 | 9.7 | 14.5 | 0.00 | 0.00 | 0.00 | 49 | 1012.7 |
| 20260506160504 | 15 | 92 | 4.8 | 12.9 | 0.00 | 0.00 | 0.00 | 47 | 1012.7 |
| 20260506160004 | 15 | 92 | 3.2 | 11.3 | 0.00 | 0.00 | 0.00 | 49 | 1012.8 |
| 20260506155503 | 16 | 136 | 4.8 | 9.7 | 0.00 | 0.00 | 0.00 | 49 | 1012.8 |
| 20260506155004 | 16 | 115 | 4.8 | 8.0 | 0.00 | 0.00 | 0.00 | 50 | 1012.8 |
| 20260506154004 | 15 | 128 | 8.0 | 14.5 | 0.00 | 0.00 | 0.00 | 52 | 1012.8 |
| 20260506153504 | 15 | 176 | 8.0 | 14.5 | 0.00 | 0.00 | 0.00 | 48 | 1012.8 |
| 20260506153004 | 16 | 149 | 8.0 | 14.5 | 0.00 | 0.00 | 0.00 | 47 | 1012.8 |
| 20260506152504 | 16 | 131 | 11.3 | 19.3 | 0.00 | 0.00 | 0.00 | 48 | 1012.8 |
| 20260506152004 | 17 | 169 | 8.0 | 12.9 | 0.00 | 0.00 | 0.00 | 47 | 1012.8 |
| 20260506151004 | 16 | 110 | 4.8 | 16.1 | 0.00 | 0.00 | 0.00 | 46 | 1012.9 |
| 20260506150504 | 16 | 96 | 8.0 | 14.5 | 0.00 | 0.00 | 0.00 | 47 | 1012.9 |
| 20260506145503 | 16 | 72 | 4.8 | 12.9 | 0.00 | 0.00 | 0.00 | 47 | 1012.9 |
| 20260506145004 | 16 | 61 | 8.0 | 16.1 | 0.00 | 0.00 | 0.00 | 46 | 1013.0 |
| 20260506144503 | 16 | 117 | 8.0 | 19.3 | 0.00 | 0.00 | 0.00 | 44 | 1013.0 |
| 20260506144004 | 16 | 94 | 6.4 | 16.1 | 0.00 | 0.00 | 0.00 | 48 | 1013.1 |
| 20260506143504 | 16 | 102 | 9.7 | 19.3 | 0.00 | 0.00 | 0.00 | 50 | 1013.0 |
| 20260506143003 | 16 | 75 | 11.3 | 19.3 | 0.00 | 0.00 | 0.00 | 49 | 1013.0 |
| 20260506142003 | 16 | 81 | 9.7 | 16.1 | 0.00 | 0.00 | 0.00 | 47 | 1013.1 |
| 20260506141504 | 16 | 123 | 8.0 | 14.5 | 0.00 | 0.00 | 0.00 | 49 | 1013.1 |
| 20260506141004 | 16 | 89 | 8.0 | 16.1 | 0.00 | 0.00 | 0.00 | 52 | 1013.2 |
| 20260506140004 | 16 | 59 | 4.8 | 14.5 | 0.00 | 0.00 | 0.00 | 52 | 1013.3 |
| 20260506135503 | 15 | 111 | 8.0 | 16.1 | 0.00 | 0.00 | 0.00 | 48 | 1013.4 |
| 20260506135004 | 15 | 114 | 6.4 | 12.9 | 0.00 | 0.00 | 0.00 | 48 | 1013.3 |
| 20260506134503 | 15 | 108 | 4.8 | 11.3 | 0.00 | 0.00 | 0.00 | 51 | 1013.3 |
| 20260506133503 | 15 | 83 | 11.3 | 19.3 | 0.00 | 0.00 | 0.00 | 47 | 1013.4 |
| 20260506133003 | 15 | 313 | 3.2 | 14.5 | 0.00 | 0.00 | 0.00 | 48 | 1013.4 |
| 20260506132505 | 15 | 70 | 9.7 | 16.1 | 0.00 | 0.00 | 0.00 | 47 | 1013.5 |
| 20260506132003 | 15 | 90 | 4.8 | 19.3 | 0.00 | 0.00 | 0.00 | 49 | 1013.4 |
| 20260506131504 | 16 | 90 | 8.0 | 16.1 | 0.00 | 0.00 | 0.00 | 48 | 1013.5 |
| 20260506131003 | 16 | 75 | 9.7 | 14.5 | 0.00 | 0.00 | 0.00 | 47 | 1013.4 |
| 20260506130504 | 16 | 127 | 11.3 | 19.3 | 0.00 | 0.00 | 0.00 | 46 | 1013.4 |
| 20260506130005 | 16 | 64 | 8.0 | 19.3 | 0.00 | 0.00 | 0.00 | 48 | 1013.5 |
| 20260506125504 | 16 | 122 | 6.4 | 20.9 | 0.00 | 0.00 | 0.00 | 47 | 1013.5 |
| 20260506124504 | 16 | 148 | 9.7 | 19.3 | 0.00 | 0.00 | 0.00 | 48 | 1013.5 |
| 20260506123504 | 16 | 97 | 16.1 | 24.1 | 0.00 | 0.00 | 0.00 | 48 | 1013.4 |
| 20260506123005 | 15 | 132 | 12.9 | 22.5 | 0.00 | 0.00 | 0.00 | 47 | 1013.4 |
| 20260506122504 | 15 | 125 | 14.5 | 19.3 | 0.00 | 0.00 | 0.00 | 49 | 1013.4 |
| 20260506122003 | 15 | 115 | 14.5 | 24.1 | 0.00 | 0.00 | 0.00 | 48 | 1013.4 |
| 20260506121503 | 15 | 117 | 17.7 | 25.7 | 0.00 | 0.00 | 0.00 | 47 | 1013.4 |
| 20260506121003 | 15 | 102 | 14.5 | 24.1 | 0.00 | 0.00 | 0.00 | 49 | 1013.4 |
| 20260506120504 | 16 | 97 | 11.3 | 20.9 | 0.00 | 0.00 | 0.00 | 45 | 1013.4 |
| 20260506120003 | 16 | 118 | 12.9 | 19.3 | 0.00 | 0.00 | 0.00 | 47 | 1013.4 |
| 20260506115003 | 15 | 122 | 8.0 | 20.9 | 0.00 | 0.00 | 0.00 | 55 | 1013.5 |
| 20260506114505 | 15 | 120 | 9.7 | 22.5 | 0.00 | 0.00 | 0.00 | 52 | 1013.5 |
| 20260506113504 | 14 | 108 | 9.7 | 19.3 | 0.00 | 0.00 | 0.00 | 51 | 1013.5 |
| 20260506113004 | 14 | 115 | 12.9 | 20.9 | 0.00 | 0.00 | 0.00 | 52 | 1013.6 |
| 20260506112503 | 14 | 103 | 11.3 | 19.3 | 0.00 | 0.00 | 0.00 | 50 | 1013.6 |
| 20260506112004 | 14 | 88 | 11.3 | 16.1 | 0.00 | 0.00 | 0.00 | 53 | 1013.6 |
| 20260506111503 | 13 | 103 | 16.1 | 20.9 | 0.00 | 0.00 | 0.00 | 53 | 1013.7 |
| 20260506110004 | 13 | 101 | 11.3 | 19.3 | 0.00 | 0.00 | 0.00 | 52 | 1013.8 |
| 20260506105503 | 13 | 91 | 9.7 | 19.3 | 0.00 | 0.00 | 0.00 | 53 | 1013.8 |
| 20260506104504 | 13 | 95 | 11.3 | 22.5 | 0.00 | 0.00 | 0.00 | 58 | 1013.8 |
| 20260506104005 | 13 | 114 | 11.3 | 19.3 | 0.00 | 0.00 | 0.00 | 58 | 1013.8 |
| 20260506103503 | 13 | 86 | 9.7 | 19.3 | 0.00 | 0.00 | 0.00 | 58 | 1013.8 |
| 20260506103003 | 12 | 114 | 6.4 | 16.1 | 0.00 | 0.00 | 0.00 | 59 | 1013.7 |
| 20260506102504 | 12 | 102 | 9.7 | 19.3 | 0.00 | 0.00 | 0.00 | 58 | 1013.8 |
| 20260506102004 | 12 | 114 | 8.0 | 19.3 | 0.00 | 0.00 | 0.00 | 58 | 1013.8 |
| 20260506101003 | 12 | 109 | 11.3 | 16.1 | 0.00 | 0.00 | 0.00 | 59 | 1013.9 |
| 20260506100504 | 12 | 117 | 6.4 | 14.5 | 0.00 | 0.00 | 0.00 | 60 | 1013.9 |
| 20260506100004 | 12 | 131 | 6.4 | 14.5 | 0.00 | 0.00 | 0.00 | 61 | 1013.9 |
| 20260506095504 | 11 | 122 | 8.0 | 14.5 | 0.00 | 0.00 | 0.00 | 62 | 1013.9 |
| 20260506095004 | 11 | 122 | 8.0 | 16.1 | 0.00 | 0.00 | 0.00 | 61 | 1013.9 |
| 20260506094504 | 11 | 93 | 4.8 | 14.5 | 0.00 | 0.00 | 0.00 | 62 | 1014.0 |
| 20260506094004 | 11 | 72 | 6.4 | 12.9 | 0.00 | 0.00 | 0.00 | 65 | 1014.0 |
| 20260506093503 | 11 | 108 | 4.8 | 12.9 | 0.00 | 0.00 | 0.00 | 64 | 1013.9 |
| 20260506093004 | 11 | 104 | 8.0 | 14.5 | 0.00 | 0.00 | 0.00 | 63 | 1013.9 |
| 20260506092503 | 11 | 111 | 8.0 | 16.1 | 0.00 | 0.00 | 0.00 | 64 | 1013.8 |
| 20260506092003 | 11 | 117 | 11.3 | 19.3 | 0.00 | 0.00 | 0.00 | 63 | 1013.9 |
| 20260506091504 | 11 | 92 | 9.7 | 16.1 | 0.00 | 0.00 | 0.00 | 64 | 1013.9 |
| 20260506091003 | 11 | 90 | 11.3 | 16.1 | 0.00 | 0.00 | 0.00 | 65 | 1013.9 |
| 20260506090504 | 11 | 123 | 11.3 | 19.3 | 0.00 | 0.00 | 0.00 | 63 | 1013.9 |
| 20260506090004 | 11 | 98 | 8.0 | 16.1 | 0.00 | 0.00 | 0.00 | 66 | 1013.9 |
| 20260506085504 | 11 | 83 | 6.4 | 19.3 | 0.00 | 0.00 | 0.00 | 66 | 1013.9 |
| 20260506085004 | 11 | 80 | 4.8 | 19.3 | 0.00 | 0.00 | 0.00 | 66 | 1013.8 |
| 20260506084504 | 10 | 54 | 8.0 | 16.1 | 0.00 | 0.00 | 0.00 | 67 | 1013.8 |
| 20260506084004 | 10 | 78 | 8.0 | 19.3 | 0.00 | 0.00 | 0.00 | 66 | 1013.7 |
| 20260506083504 | 10 | 100 | 6.4 | 11.3 | 0.00 | 0.00 | 0.00 | 67 | 1013.8 |
| 20260506083004 | 10 | 85 | 3.2 | 11.3 | 0.00 | 0.00 | 0.00 | 66 | 1013.8 |
| 20260506082004 | 10 | 82 | 6.4 | 14.5 | 0.00 | 0.00 | 0.00 | 66 | 1013.8 |
| 20260506081503 | 10 | 76 | 8.0 | 16.1 | 0.00 | 0.00 | 0.00 | 66 | 1013.8 |
| 20260506080503 | 10 | 66 | 6.4 | 14.5 | 0.00 | 0.00 | 0.00 | 67 | 1013.9 |
| 20260506073504 | 8 | 80 | 8.0 | 19.3 | 0.00 | 0.00 | 0.00 | 68 | 1013.8 |
| 20260506073004 | 8 | 71 | 8.0 | 12.9 | 0.00 | 0.00 | 0.00 | 68 | 1013.7 |
| 20260506072004 | 8 | 74 | 6.4 | 14.5 | 0.00 | 0.00 | 0.00 | 68 | 1013.7 |
| 20260506071504 | 8 | 90 | 6.4 | 14.5 | 0.00 | 0.00 | 0.00 | 68 | 1013.7 |
| 20260506071004 | 8 | 67 | 6.4 | 16.1 | 0.00 | 0.00 | 0.00 | 68 | 1013.7 |
| 20260506070504 | 8 | 106 | 4.8 | 14.5 | 0.00 | 0.00 | 0.00 | 69 | 1013.7 |
| 20260506062004 | 8 | 53 | 8.0 | 14.5 | 0.00 | 0.00 | 0.00 | 75 | 1013.3 |
| 20260506061503 | 8 | 33 | 8.0 | 14.5 | 0.00 | 0.00 | 0.00 | 75 | 1013.3 |
| 20260506061004 | 8 | 39 | 8.0 | 16.1 | 0.00 | 0.00 | 0.00 | 76 | 1013.3 |
| 20260506060504 | 8 | 41 | 4.8 | 11.3 | 0.00 | 0.00 | 0.00 | 76 | 1013.3 |
| 20260506051003 | 8 | 55 | 4.8 | 9.7 | 0.00 | 0.00 | 0.00 | 77 | 1013.0 |
| 20260506050503 | 8 | 45 | 4.8 | 11.3 | 0.00 | 0.00 | 0.00 | 76 | 1013.0 |
| 20260506045003 | 8 | 59 | 3.2 | 8.0 | 0.00 | 0.00 | 0.00 | 76 | 1012.9 |
| 20260506044503 | 8 | 52 | 4.8 | 8.0 | 0.00 | 0.00 | 0.00 | 75 | 1012.9 |
| 20260506044004 | 8 | 72 | 3.2 | 4.8 | 0.00 | 0.00 | 0.00 | 75 | 1013.0 |
| 20260506043504 | 8 | 40 | 4.8 | 12.9 | 0.00 | 0.00 | 0.00 | 75 | 1012.9 |
| 20260506043004 | 8 | 106 | 3.2 | 9.7 | 0.00 | 0.00 | 0.00 | 75 | 1012.9 |
| 20260506042503 | 8 | 80 | 3.2 | 19.3 | 0.00 | 0.00 | 0.00 | 74 | 1012.9 |
| 20260506042004 | 8 | 77 | 4.8 | 12.9 | 0.00 | 0.00 | 0.00 | 74 | 1012.9 |
| 20260506041504 | 8 | 87 | 4.8 | 12.9 | 0.00 | 0.00 | 0.00 | 74 | 1012.8 |
| 20260506041003 | 8 | 67 | 4.8 | 9.7 | 0.00 | 0.00 | 0.00 | 74 | 1012.9 |
| 20260506040503 | 9 | 71 | 3.2 | 8.0 | 0.00 | 0.00 | 0.00 | 75 | 1012.9 |
| 20260506040004 | 9 | 73 | 3.2 | 8.0 | 0.00 | 0.00 | 0.00 | 74 | 1012.8 |
| 20260506035504 | 9 | 86 | 4.8 | 14.5 | 0.00 | 0.00 | 0.00 | 74 | 1012.8 |
| 20260506035004 | 9 | 75 | 8.0 | 14.5 | 0.00 | 0.00 | 0.00 | 74 | 1012.8 |
| 20260506034504 | 9 | 76 | 8.0 | 16.1 | 0.00 | 0.00 | 0.00 | 74 | 1012.9 |
| 20260506034004 | 9 | 73 | 6.4 | 19.3 | 0.00 | 0.00 | 0.00 | 75 | 1012.9 |
| 20260506033503 | 9 | 46 | 6.4 | 19.3 | 0.00 | 0.00 | 0.00 | 75 | 1012.9 |
| 20260506033005 | 9 | 64 | 4.8 | 11.3 | 0.00 | 0.00 | 0.00 | 75 | 1012.9 |
| 20260506032503 | 9 | 73 | 4.8 | 14.5 | 0.00 | 0.00 | 0.00 | 75 | 1012.9 |
| 20260506032004 | 9 | 67 | 8.0 | 14.5 | 0.00 | 0.00 | 0.00 | 76 | 1012.8 |
| 20260506031504 | 9 | 86 | 4.8 | 9.7 | 0.00 | 0.00 | 0.00 | 77 | 1012.8 |
| 20260506031004 | 9 | 62 | 3.2 | 8.0 | 0.00 | 0.00 | 0.00 | 77 | 1012.9 |
| 20260506030504 | 9 | 53 | 4.8 | 14.5 | 0.00 | 0.00 | 0.00 | 77 | 1012.8 |
| 20260506030004 | 10 | 37 | 3.2 | 8.0 | 0.00 | 0.00 | 0.00 | 77 | 1012.8 |
| 20260506025503 | 10 | 43 | 4.8 | 14.5 | 0.00 | 0.00 | 0.00 | 77 | 1012.8 |
| 20260506025004 | 10 | 63 | 6.4 | 14.5 | 0.00 | 0.00 | 0.00 | 77 | 1012.9 |
| 20260506024503 | 10 | 57 | 4.8 | 8.0 | 0.00 | 0.00 | 0.00 | 76 | 1012.9 |
| 20260506024004 | 10 | 56 | 4.8 | 12.9 | 0.00 | 0.00 | 0.00 | 77 | 1012.9 |
| 20260506023504 | 10 | 39 | 4.8 | 9.7 | 0.00 | 0.00 | 0.00 | 76 | 1012.9 |
| 20260506023004 | 10 | 45 | 4.8 | 12.9 | 0.00 | 0.00 | 0.00 | 76 | 1012.9 |
| 20260506022503 | 10 | 48 | 8.0 | 16.1 | 0.00 | 0.00 | 0.00 | 76 | 1012.9 |
| 20260506022004 | 10 | 53 | 4.8 | 14.5 | 0.00 | 0.00 | 0.00 | 76 | 1012.9 |
| 20260506021503 | 10 | 27 | 6.4 | 9.7 | 0.00 | 0.00 | 0.00 | 76 | 1012.9 |
| 20260506021004 | 10 | 47 | 4.8 | 9.7 | 0.00 | 0.00 | 0.00 | 76 | 1012.8 |
| 20260506020503 | 10 | 38 | 6.4 | 14.5 | 0.00 | 0.00 | 0.00 | 76 | 1012.9 |
| 20260506020004 | 10 | 41 | 3.2 | 4.8 | 0.00 | 0.00 | 0.00 | 76 | 1012.9 |
| 20260506015503 | 10 | 40 | 6.4 | 12.9 | 0.00 | 0.00 | 0.00 | 76 | 1012.9 |
| 20260506015003 | 10 | 34 | 4.8 | 12.9 | 0.00 | 0.00 | 0.00 | 75 | 1012.9 |
| 20260506014503 | 10 | 53 | 3.2 | 9.7 | 0.00 | 0.00 | 0.00 | 75 | 1012.9 |
| 20260506014005 | 10 | 25 | 8.0 | 16.1 | 0.00 | 0.00 | 0.00 | 75 | 1012.9 |
| 20260506013504 | 10 | 41 | 8.0 | 14.5 | 0.00 | 0.00 | 0.00 | 75 | 1012.9 |
| 20260506013004 | 10 | 42 | 6.4 | 14.5 | 0.00 | 0.00 | 0.00 | 75 | 1013.0 |
| 20260506012503 | 10 | 37 | 4.8 | 12.9 | 0.00 | 0.00 | 0.00 | 75 | 1013.0 |
| 20260506012004 | 10 | 42 | 3.2 | 12.9 | 0.00 | 0.00 | 0.00 | 75 | 1013.1 |
| 20260506011504 | 10 | 48 | 4.8 | 14.5 | 0.00 | 0.00 | 0.00 | 74 | 1013.1 |
| 20260506011004 | 10 | 34 | 4.8 | 14.5 | 0.00 | 0.00 | 0.00 | 74 | 1013.1 |
| 20260506010503 | 10 | 44 | 8.0 | 16.1 | 0.00 | 0.00 | 0.00 | 74 | 1013.1 |
| 20260506010003 | 10 | 19 | 8.0 | 16.1 | 0.00 | 0.00 | 0.00 | 74 | 1013.1 |
| 20260506005504 | 10 | 41 | 3.2 | 14.5 | 0.00 | 0.00 | 0.00 | 74 | 1013.1 |
| 20260506005003 | 10 | 52 | 6.4 | 20.9 | 0.00 | 0.00 | 0.00 | 74 | 1013.1 |
| 20260506004004 | 10 | 28 | 4.8 | 20.9 | 0.00 | 0.00 | 0.00 | 73 | 1013.1 |
| 20260506003503 | 10 | 17 | 4.8 | 12.9 | 0.00 | 0.00 | 0.00 | 73 | 1013.2 |
| 20260506003004 | 10 | 42 | 6.4 | 9.7 | 0.00 | 0.00 | 0.00 | 73 | 1013.2 |
| 20260506001504 | 10 | 47 | 8.0 | 19.3 | 0.00 | 0.00 | 0.00 | 72 | 1013.3 |
| 20260506000504 | 10 | 43 | 9.7 | 19.3 | 0.00 | 0.00 | 0.00 | 72 | 1013.2 |
| 20260506000004 | 10 | 30 | 4.8 | 16.1 | 0.00 | 0.00 | 0.00 | 72 | 1013.2 |
| 20260505235504 | 10 | 26 | 4.8 | 11.3 | 0.00 | 0.00 | 0.00 | 71 | 1013.2 |
| 20260505235003 | 10 | 44 | 9.7 | 19.3 | 0.00 | 0.00 | 0.00 | 71 | 1013.2 |
| 20260505234503 | 10 | 34 | 3.2 | 12.9 | 0.00 | 0.00 | 0.00 | 71 | 1013.2 |
| 20260505234004 | 10 | 55 | 6.4 | 14.5 | 0.00 | 0.00 | 0.00 | 71 | 1013.3 |
| 20260505233504 | 10 | 78 | 4.8 | 8.0 | 0.00 | 0.00 | 0.00 | 71 | 1013.2 |
| 20260505233004 | 10 | 78 | 3.2 | 11.3 | 0.00 | 0.00 | 0.00 | 71 | 1013.2 |
| 20260505232503 | 10 | 80 | 3.2 | 4.8 | 0.00 | 0.00 | 0.00 | 71 | 1013.2 |
| 20260505232004 | 10 | 80 | 3.2 | 4.8 | 0.00 | 0.00 | 0.00 | 71 | 1013.2 |
| 20260505231503 | 10 | 57 | 1.6 | 4.8 | 0.00 | 0.00 | 0.00 | 70 | 1013.3 |
| 20260505231003 | 10 | 54 | 1.6 | 3.2 | 0.00 | 0.00 | 0.00 | 70 | 1013.3 |
| 20260505230504 | 10 | 54 | 3.2 | 4.8 | 0.00 | 0.00 | 0.00 | 70 | 1013.3 |
| 20260505230003 | 10 | 52 | 1.6 | 4.8 | 0.00 | 0.00 | 0.00 | 70 | 1013.3 |
| 20260505225004 | 10 | 53 | 3.2 | 4.8 | 0.00 | 0.00 | 0.00 | 70 | 1013.4 |
| 20260505224504 | 10 | 51 | 3.2 | 4.8 | 0.00 | 0.00 | 0.00 | 70 | 1013.4 |
| 20260505224004 | 10 | 50 | 3.2 | 4.8 | 0.00 | 0.00 | 0.00 | 70 | 1013.4 |
| 20260505223503 | 10 | 48 | 3.2 | 4.8 | 0.00 | 0.00 | 0.00 | 69 | 1013.4 |
| 20260505222504 | 10 | 90 | 3.2 | 9.7 | 0.00 | 0.00 | 0.00 | 69 | 1013.4 |
| 20260505222003 | 10 | 92 | 3.2 | 4.8 | 0.00 | 0.00 | 0.00 | 70 | 1013.4 |
| 20260505221503 | 10 | 92 | 8.0 | 11.3 | 0.00 | 0.00 | 0.00 | 69 | 1013.5 |
| 20260505221004 | 10 | 67 | 1.6 | 3.2 | 0.00 | 0.00 | 0.00 | 69 | 1013.5 |
| 20260505215004 | 10 | 65 | 3.2 | 4.8 | 0.00 | 0.00 | 0.00 | 69 | 1013.4 |
| 20260505214504 | 10 | 62 | 1.6 | 3.2 | 0.00 | 0.00 | 0.00 | 69 | 1013.4 |
| 20260505214005 | 10 | 61 | 1.6 | 4.8 | 0.00 | 0.00 | 0.00 | 70 | 1013.4 |
| 20260505213503 | 10 | 62 | 1.6 | 3.2 | 0.00 | 0.00 | 0.00 | 70 | 1013.4 |
| 20260505213003 | 11 | 62 | 0.0 | 0.0 | 0.00 | 0.00 | 0.00 | 70 | 1013.5 |
| 20260505211504 | 11 | 62 | 1.6 | 8.0 | 0.00 | 0.00 | 0.00 | 69 | 1013.6 |
| 20260505211004 | 11 | 64 | 1.6 | 4.8 | 0.00 | 0.00 | 0.00 | 69 | 1013.6 |
| 20260505210503 | 11 | 63 | 1.6 | 4.8 | 0.00 | 0.00 | 0.00 | 69 | 1013.6 |
| 20260505210004 | 11 | 62 | 1.6 | 4.8 | 0.00 | 0.00 | 0.00 | 68 | 1013.5 |
| 20260505205004 | 11 | 59 | 3.2 | 4.8 | 0.00 | 0.00 | 0.00 | 68 | 1013.4 |
| 20260505204503 | 11 | 57 | 3.2 | 4.8 | 0.00 | 0.00 | 0.00 | 68 | 1013.4 |
| 20260505203505 | 11 | 61 | 3.2 | 8.0 | 0.00 | 0.00 | 0.00 | 68 | 1013.4 |
| 20260505203004 | 11 | 29 | 4.8 | 9.7 | 0.00 | 0.00 | 0.00 | 67 | 1013.3 |
| 20260505202503 | 11 | 46 | 3.2 | 9.7 | 0.00 | 0.00 | 0.00 | 67 | 1013.3 |
| 20260505202004 | 11 | 44 | 4.8 | 11.3 | 0.00 | 0.00 | 0.00 | 67 | 1013.2 |
| 20260505201004 | 11 | 8 | 6.4 | 16.1 | 0.00 | 0.00 | 0.00 | 66 | 1013.2 |
| 20260505200504 | 11 | 38 | 6.4 | 16.1 | 0.00 | 0.00 | 0.00 | 66 | 1013.2 |
| 20260505200005 | 11 | 34 | 8.0 | 14.5 | 0.00 | 0.00 | 0.00 | 66 | 1013.1 |
| 20260505195003 | 11 | 355 | 3.2 | 8.0 | 0.00 | 0.00 | 0.00 | 67 | 1013.0 |
| 20260505194505 | 11 | 7 | 3.2 | 12.9 | 0.00 | 0.00 | 0.00 | 67 | 1012.9 |
| 20260505194003 | 12 | 36 | 4.8 | 16.1 | 0.00 | 0.00 | 0.00 | 65 | 1012.8 |
| 20260505193503 | 12 | 44 | 3.2 | 11.3 | 0.00 | 0.00 | 0.00 | 64 | 1012.8 |
| 20260505193003 | 12 | 20 | 4.8 | 11.3 | 0.00 | 0.00 | 0.00 | 64 | 1012.8 |
| 20260505192504 | 12 | 26 | 6.4 | 16.1 | 0.00 | 0.00 | 0.00 | 63 | 1012.7 |
| 20260505192003 | 12 | 31 | 8.0 | 14.5 | 0.00 | 0.00 | 0.00 | 62 | 1012.7 |
| 20260505191004 | 12 | 48 | 4.8 | 14.5 | 0.00 | 0.00 | 0.00 | 61 | 1012.7 |
| 20260505190503 | 12 | 44 | 4.8 | 11.3 | 0.00 | 0.00 | 0.00 | 62 | 1012.6 |
| 20260505185004 | 12 | 37 | 6.4 | 14.5 | 0.00 | 0.00 | 0.00 | 61 | 1012.6 |
| 20260505184504 | 12 | 34 | 6.4 | 14.5 | 0.00 | 0.00 | 0.00 | 62 | 1012.6 |
| 20260505183004 | 12 | 41 | 8.0 | 14.5 | 0.00 | 0.00 | 0.00 | 61 | 1012.6 |
| 20260505182504 | 12 | 42 | 8.0 | 19.3 | 0.00 | 0.00 | 0.00 | 61 | 1012.5 |
| 20260505181504 | 12 | 59 | 8.0 | 16.1 | 0.00 | 0.00 | 0.00 | 61 | 1012.5 |